VHNCO YWSL-YMEN

Flight info

Callsign VHNCO
Flight time 0h 58m
Altitude 2500
Route FYN YLTV DARL YLEG YTDN CATT CERB BTO PTOM APL MCTY MVC
Aircraft C182/L-SDFG/C

Departure

Time 2026-04-19 09:00
Airport West Sale Airport (YWSL)

Arrival

Time 2026-04-19 09:58
Airport Melbourne Essendon Airport (YMEN)
Time Latitude Longitude Altitude Speed Heading
2026-04-19 08:50 -38.09640 146.96322 71 ft 0 kts 304°
2026-04-19 08:56 -38.09636 146.96315 64 ft 6 kts 306°
2026-04-19 08:56 -38.09614 146.96269 70 ft 10 kts 274°
2026-04-19 08:57 -38.09610 146.96163 67 ft 13 kts 305°
2026-04-19 08:57 -38.09537 146.96115 66 ft 11 kts 337°
2026-04-19 08:57 -38.09473 146.96079 64 ft 9 kts 338°
2026-04-19 08:57 -38.09423 146.96055 66 ft 9 kts 340°
2026-04-19 08:58 -38.09352 146.96018 65 ft 14 kts 336°
2026-04-19 08:58 -38.09241 146.95959 64 ft 20 kts 335°
2026-04-19 08:58 -38.09152 146.95862 58 ft 12 kts 320°
2026-04-19 08:58 -38.09098 146.95804 59 ft 8 kts 316°
2026-04-19 08:59 -38.09056 146.95752 57 ft 7 kts 315°
2026-04-19 08:59 -38.09020 146.95713 58 ft 10 kts 320°
2026-04-19 08:59 -38.08974 146.95749 57 ft 8 kts 106°
2026-04-19 08:59 -38.09010 146.96006 60 ft 58 kts 101°
2026-04-19 09:00 -38.09092 146.96684 170 ft 89 kts 96°
2026-04-19 09:00 -38.09198 146.97525 368 ft 102 kts 106°
2026-04-19 09:00 -38.09667 146.97995 693 ft 92 kts 184°
2026-04-19 09:00 -38.10038 146.97383 828 ft 102 kts 259°
2026-04-19 09:01 -38.10055 146.96434 900 ft 110 kts 270°
2026-04-19 09:01 -38.10094 146.95469 1076 ft 107 kts 264°
2026-04-19 09:01 -38.10178 146.94525 1242 ft 108 kts 264°
2026-04-19 09:01 -38.10286 146.93584 1397 ft 109 kts 251°
2026-04-19 09:02 -38.10560 146.92684 1492 ft 114 kts 249°
2026-04-19 09:02 -38.10879 146.91687 1506 ft 129 kts 247°
2026-04-19 09:02 -38.11245 146.90603 1507 ft 137 kts 246°
2026-04-19 09:02 -38.11630 146.89487 1502 ft 140 kts 246°
2026-04-19 09:03 -38.12022 146.88361 1511 ft 139 kts 246°
2026-04-19 09:03 -38.12418 146.87223 1505 ft 142 kts 245°
2026-04-19 09:03 -38.12824 146.86069 1505 ft 144 kts 246°
2026-04-19 09:03 -38.13230 146.84907 1501 ft 142 kts 246°
2026-04-19 09:04 -38.13624 146.83765 1495 ft 140 kts 246°
2026-04-19 09:04 -38.14018 146.82634 1490 ft 140 kts 246°
2026-04-19 09:04 -38.14410 146.81507 1496 ft 139 kts 246°
2026-04-19 09:04 -38.14804 146.80382 1497 ft 140 kts 245°
2026-04-19 09:05 -38.15200 146.79242 1495 ft 142 kts 246°
2026-04-19 09:05 -38.15599 146.78094 1493 ft 143 kts 246°
2026-04-19 09:05 -38.15999 146.76946 1499 ft 141 kts 245°
2026-04-19 09:05 -38.16397 146.75799 1499 ft 142 kts 246°
2026-04-19 09:06 -38.16795 146.74652 1491 ft 142 kts 246°
2026-04-19 09:06 -38.17187 146.73526 1507 ft 142 kts 246°
2026-04-19 09:06 -38.17590 146.72363 1505 ft 142 kts 246°
2026-04-19 09:06 -38.17982 146.71232 1504 ft 142 kts 246°
2026-04-19 09:07 -38.18380 146.70089 1504 ft 141 kts 247°
2026-04-19 09:07 -38.18783 146.68925 1506 ft 143 kts 246°
2026-04-19 09:07 -38.19179 146.67784 1512 ft 143 kts 246°
2026-04-19 09:07 -38.19398 146.66559 1505 ft 141 kts 268°
2026-04-19 09:08 -38.19472 146.65313 1498 ft 141 kts 265°
2026-04-19 09:08 -38.19560 146.64069 1499 ft 141 kts 266°
2026-04-19 09:08 -38.19645 146.62825 1502 ft 141 kts 266°
2026-04-19 09:08 -38.19730 146.61584 1504 ft 141 kts 266°
2026-04-19 09:09 -38.19817 146.60340 1505 ft 142 kts 266°
2026-04-19 09:09 -38.19903 146.59108 1508 ft 142 kts 266°
2026-04-19 09:09 -38.19986 146.57853 1506 ft 142 kts 266°
2026-04-19 09:09 -38.20071 146.56607 1506 ft 141 kts 266°
2026-04-19 09:10 -38.20157 146.55358 1508 ft 142 kts 266°
2026-04-19 09:10 -38.20243 146.54105 1509 ft 142 kts 266°
2026-04-19 09:10 -38.20327 146.52855 1509 ft 142 kts 266°
2026-04-19 09:10 -38.20409 146.51605 1498 ft 141 kts 266°
2026-04-19 09:11 -38.20494 146.50376 1559 ft 136 kts 266°
2026-04-19 09:11 -38.20575 146.49209 1684 ft 130 kts 266°
2026-04-19 09:11 -38.20652 146.48063 1823 ft 130 kts 267°
2026-04-19 09:11 -38.20799 146.46946 1996 ft 129 kts 248°
2026-04-19 09:12 -38.21300 146.46023 2165 ft 125 kts 236°
2026-04-19 09:12 -38.21797 146.45149 2343 ft 121 kts 236°
2026-04-19 09:12 -38.22302 146.44281 2493 ft 124 kts 236°
2026-04-19 09:12 -38.22828 146.43361 2506 ft 132 kts 236°
2026-04-19 09:13 -38.23379 146.42400 2509 ft 136 kts 235°
2026-04-19 09:13 -38.23940 146.41420 2509 ft 138 kts 235°
2026-04-19 09:13 -38.24505 146.40437 2510 ft 137 kts 235°
2026-04-19 09:13 -38.25066 146.39459 2506 ft 137 kts 235°
2026-04-19 09:14 -38.25626 146.38482 2506 ft 138 kts 236°
2026-04-19 09:14 -38.26199 146.37480 2504 ft 141 kts 236°
2026-04-19 09:14 -38.26772 146.36479 2511 ft 139 kts 236°
2026-04-19 09:14 -38.27349 146.35470 2511 ft 142 kts 235°
2026-04-19 09:15 -38.27934 146.34450 2504 ft 142 kts 236°
2026-04-19 09:15 -38.28515 146.33434 2502 ft 141 kts 236°
2026-04-19 09:15 -38.29661 146.31434 2507 ft 141 kts 236°
2026-04-19 09:16 -38.30234 146.30430 2497 ft 139 kts 236°
2026-04-19 09:16 -38.30796 146.29438 2494 ft 138 kts 236°
2026-04-19 09:16 -38.31364 146.28452 2502 ft 138 kts 235°
2026-04-19 09:16 -38.31934 146.27457 2492 ft 138 kts 235°
2026-04-19 09:17 -38.32493 146.26476 2502 ft 139 kts 235°
2026-04-19 09:17 -38.33061 146.25487 2497 ft 137 kts 234°
2026-04-19 09:17 -38.33621 146.24508 2493 ft 137 kts 236°
2026-04-19 09:17 -38.34177 146.23524 2489 ft 137 kts 235°
2026-04-19 09:18 -38.34732 146.22549 2492 ft 135 kts 236°
2026-04-19 09:18 -38.35288 146.21575 2497 ft 137 kts 237°
2026-04-19 09:18 -38.35732 146.20514 2493 ft 135 kts 245°
2026-04-19 09:18 -38.36159 146.19443 2503 ft 136 kts 244°
2026-04-19 09:19 -38.36592 146.18369 2499 ft 136 kts 244°
2026-04-19 09:19 -38.37023 146.17303 2502 ft 136 kts 244°
2026-04-19 09:19 -38.37451 146.16229 2494 ft 136 kts 245°
2026-04-19 09:19 -38.37887 146.15152 2502 ft 139 kts 244°
2026-04-19 09:20 -38.38328 146.14051 2499 ft 139 kts 245°
2026-04-19 09:20 -38.38769 146.12951 2502 ft 140 kts 244°
2026-04-19 09:20 -38.39212 146.11847 2503 ft 139 kts 244°
2026-04-19 09:20 -38.39657 146.10741 2501 ft 141 kts 244°
2026-04-19 09:21 -38.40102 146.09630 2498 ft 141 kts 245°
2026-04-19 09:21 -38.40549 146.08515 2493 ft 141 kts 245°
2026-04-19 09:21 -38.40993 146.07413 2493 ft 139 kts 245°
2026-04-19 09:21 -38.41431 146.06323 2501 ft 138 kts 244°
2026-04-19 09:22 -38.41868 146.05223 2496 ft 139 kts 245°
2026-04-19 09:22 -38.42305 146.04130 2500 ft 138 kts 245°
2026-04-19 09:22 -38.42745 146.03035 2501 ft 139 kts 244°
2026-04-19 09:22 -38.43186 146.01933 2501 ft 139 kts 245°
2026-04-19 09:23 -38.43625 146.00836 2496 ft 139 kts 244°
2026-04-19 09:23 -38.44059 145.99746 2489 ft 137 kts 245°
2026-04-19 09:23 -38.44494 145.98664 2487 ft 137 kts 245°
2026-04-19 09:23 -38.44924 145.97583 2491 ft 137 kts 245°
2026-04-19 09:24 -38.45354 145.96501 2491 ft 137 kts 244°
2026-04-19 09:24 -38.45788 145.95417 2488 ft 137 kts 244°
2026-04-19 09:24 -38.46219 145.94347 2483 ft 135 kts 245°
2026-04-19 09:24 -38.46643 145.93278 2481 ft 136 kts 245°
2026-04-19 09:25 -38.47073 145.92200 2495 ft 137 kts 245°
2026-04-19 09:25 -38.47503 145.91126 2485 ft 136 kts 245°
2026-04-19 09:25 -38.47929 145.90050 2496 ft 137 kts 245°
2026-04-19 09:25 -38.48362 145.88959 2495 ft 139 kts 245°
2026-04-19 09:26 -38.48807 145.87865 2490 ft 139 kts 245°
2026-04-19 09:26 -38.49174 145.86750 2490 ft 136 kts 260°
2026-04-19 09:26 -38.49115 145.85536 2478 ft 136 kts 290°
2026-04-19 09:26 -38.48629 145.84535 2489 ft 133 kts 311°
2026-04-19 09:27 -38.48045 145.83615 2493 ft 135 kts 309°
2026-04-19 09:27 -38.47457 145.82689 2491 ft 133 kts 310°
2026-04-19 09:27 -38.46872 145.81775 2494 ft 137 kts 310°
2026-04-19 09:27 -38.46269 145.80838 2489 ft 135 kts 310°
2026-04-19 09:28 -38.45674 145.79906 2494 ft 136 kts 310°
2026-04-19 09:28 -38.45077 145.78974 2492 ft 136 kts 310°
2026-04-19 09:28 -38.44483 145.78043 2480 ft 135 kts 309°
2026-04-19 09:28 -38.43891 145.77118 2490 ft 136 kts 308°
2026-04-19 09:29 -38.43289 145.76181 2485 ft 137 kts 309°
2026-04-19 09:29 -38.42686 145.75241 2488 ft 136 kts 309°
2026-04-19 09:29 -38.42090 145.74311 2483 ft 136 kts 309°
2026-04-19 09:29 -38.41493 145.73379 2480 ft 135 kts 308°
2026-04-19 09:30 -38.40901 145.72457 2490 ft 134 kts 308°
2026-04-19 09:30 -38.40307 145.71530 2481 ft 135 kts 309°
2026-04-19 09:30 -38.39719 145.70613 2481 ft 133 kts 309°
2026-04-19 09:30 -38.39133 145.69700 2488 ft 134 kts 308°
2026-04-19 09:31 -38.38541 145.68777 2489 ft 135 kts 309°
2026-04-19 09:31 -38.37937 145.67837 2486 ft 138 kts 308°
2026-04-19 09:31 -38.37329 145.66890 2487 ft 138 kts 308°
2026-04-19 09:31 -38.36718 145.65939 2486 ft 139 kts 309°
2026-04-19 09:32 -38.36115 145.65002 2486 ft 136 kts 308°
2026-04-19 09:32 -38.35515 145.64067 2489 ft 137 kts 309°
2026-04-19 09:32 -38.34911 145.63129 2485 ft 137 kts 309°
2026-04-19 09:32 -38.34313 145.62199 2480 ft 134 kts 309°
2026-04-19 09:33 -38.33718 145.61273 2489 ft 136 kts 308°
2026-04-19 09:33 -38.33113 145.60333 2490 ft 138 kts 308°
2026-04-19 09:33 -38.32513 145.59400 2486 ft 135 kts 308°
2026-04-19 09:33 -38.31914 145.58470 2488 ft 137 kts 309°
2026-04-19 09:34 -38.31311 145.57537 2475 ft 136 kts 309°
2026-04-19 09:34 -38.30718 145.56612 2473 ft 134 kts 308°
2026-04-19 09:34 -38.30135 145.55706 2481 ft 133 kts 309°
2026-04-19 09:34 -38.29545 145.54793 2478 ft 135 kts 309°
2026-04-19 09:35 -38.28948 145.53868 2479 ft 136 kts 309°
2026-04-19 09:35 -38.28354 145.52951 2481 ft 132 kts 308°
2026-04-19 09:35 -38.27764 145.52033 2483 ft 135 kts 308°
2026-04-19 09:35 -38.27161 145.51099 2477 ft 137 kts 308°
2026-04-19 09:36 -38.26559 145.50165 2482 ft 137 kts 308°
2026-04-19 09:36 -38.25949 145.49221 2484 ft 138 kts 308°
2026-04-19 09:36 -38.25350 145.48294 2481 ft 137 kts 308°
2026-04-19 09:36 -38.24739 145.47349 2482 ft 136 kts 308°
2026-04-19 09:37 -38.24138 145.46419 2481 ft 136 kts 308°
2026-04-19 09:37 -38.23538 145.45491 2477 ft 136 kts 308°
2026-04-19 09:37 -38.22938 145.44563 2473 ft 136 kts 308°
2026-04-19 09:37 -38.22338 145.43636 2472 ft 135 kts 308°
2026-04-19 09:38 -38.21740 145.42710 2477 ft 135 kts 308°
2026-04-19 09:38 -38.21342 145.41645 2483 ft 134 kts 282°
2026-04-19 09:38 -38.21112 145.40483 2474 ft 136 kts 284°
2026-04-19 09:38 -38.20865 145.39334 2468 ft 133 kts 284°
2026-04-19 09:39 -38.20629 145.38213 2475 ft 134 kts 284°
2026-04-19 09:39 -38.20389 145.37069 2484 ft 135 kts 284°
2026-04-19 09:39 -38.20144 145.35914 2479 ft 136 kts 284°
2026-04-19 09:39 -38.19898 145.34761 2480 ft 135 kts 284°
2026-04-19 09:40 -38.19655 145.33601 2476 ft 136 kts 284°
2026-04-19 09:40 -38.19409 145.32433 2475 ft 137 kts 284°
2026-04-19 09:40 -38.19164 145.31270 2477 ft 135 kts 284°
2026-04-19 09:40 -38.18919 145.30115 2482 ft 136 kts 284°
2026-04-19 09:41 -38.18673 145.28958 2482 ft 135 kts 284°
2026-04-19 09:41 -38.18428 145.27796 2484 ft 137 kts 284°
2026-04-19 09:41 -38.18181 145.26636 2482 ft 135 kts 284°
2026-04-19 09:41 -38.17938 145.25480 2483 ft 136 kts 283°
2026-04-19 09:42 -38.17690 145.24332 2475 ft 135 kts 284°
2026-04-19 09:42 -38.17448 145.23181 2480 ft 137 kts 283°
2026-04-19 09:42 -38.17284 145.22410 2478 ft 136 kts 284°
2026-04-19 09:42 -38.16955 145.20862 2472 ft 136 kts 284°
2026-04-19 09:43 -38.16794 145.20098 2474 ft 134 kts 283°
2026-04-19 09:43 -38.16550 145.18952 2476 ft 135 kts 284°
2026-04-19 09:43 -38.16301 145.17783 2485 ft 139 kts 283°
2026-04-19 09:43 -38.16048 145.16604 2473 ft 137 kts 284°
2026-04-19 09:44 -38.15801 145.15438 2472 ft 135 kts 283°
2026-04-19 09:44 -38.15557 145.14287 2471 ft 134 kts 283°
2026-04-19 09:44 -38.15293 145.13142 2476 ft 137 kts 291°
2026-04-19 09:44 -38.14676 145.12196 2474 ft 143 kts 322°
2026-04-19 09:45 -38.13737 145.11727 2376 ft 150 kts 352°
2026-04-19 09:45 -38.12702 145.11764 2252 ft 148 kts
2026-04-19 09:45 -38.11675 145.11814 2132 ft 147 kts
2026-04-19 09:45 -38.10650 145.11861 2008 ft 147 kts
2026-04-19 09:46 -38.09629 145.11907 1881 ft 147 kts
2026-04-19 09:46 -38.08611 145.11953 1753 ft 147 kts
2026-04-19 09:46 -38.07606 145.11864 1618 ft 145 kts 342°
2026-04-19 09:46 -38.06757 145.11196 1479 ft 144 kts 317°
2026-04-19 09:47 -38.06027 145.10370 1480 ft 138 kts 318°
2026-04-19 09:47 -38.05309 145.09575 1477 ft 136 kts 318°
2026-04-19 09:47 -38.04599 145.08787 1473 ft 135 kts 318°
2026-04-19 09:47 -38.03891 145.08002 1471 ft 135 kts 319°
2026-04-19 09:48 -38.03186 145.07221 1470 ft 134 kts 318°
2026-04-19 09:48 -38.02483 145.06442 1469 ft 134 kts 318°
2026-04-19 09:48 -38.01779 145.05662 1468 ft 134 kts 318°
2026-04-19 09:48 -38.01078 145.04885 1468 ft 134 kts 318°
2026-04-19 09:49 -38.00374 145.04107 1470 ft 134 kts 319°
2026-04-19 09:49 -37.99672 145.03330 1471 ft 134 kts 318°
2026-04-19 09:49 -37.98971 145.02554 1471 ft 134 kts 319°
2026-04-19 09:49 -37.98269 145.01776 1471 ft 134 kts 319°
2026-04-19 09:50 -37.97566 145.00999 1468 ft 134 kts 319°
2026-04-19 09:50 -37.96861 145.00231 1467 ft 133 kts 323°
2026-04-19 09:50 -37.96008 144.99836 1467 ft 132 kts 351°
2026-04-19 09:50 -37.95104 144.99627 1467 ft 132 kts 349°
2026-04-19 09:51 -37.94197 144.99404 1468 ft 133 kts 349°
2026-04-19 09:51 -37.93285 144.99183 1468 ft 133 kts 349°
2026-04-19 09:51 -37.92372 144.98962 1470 ft 134 kts 349°
2026-04-19 09:51 -37.91454 144.98739 1471 ft 135 kts 349°
2026-04-19 09:52 -37.90530 144.98600 1469 ft 134 kts 356°
2026-04-19 09:52 -37.89597 144.98490 1468 ft 134 kts 355°
2026-04-19 09:52 -37.88682 144.98379 1469 ft 134 kts 355°
2026-04-19 09:52 -37.87768 144.98174 1466 ft 133 kts 346°
2026-04-19 09:53 -37.86850 144.97898 1467 ft 134 kts 347°
2026-04-19 09:53 -37.85952 144.97635 1467 ft 134 kts 347°
2026-04-19 09:53 -37.85043 144.97325 1465 ft 133 kts 342°
2026-04-19 09:53 -37.84148 144.97344 1463 ft 130 kts 19°
2026-04-19 09:54 -37.83289 144.97721 1465 ft 132 kts 19°
2026-04-19 09:54 -37.82428 144.98088 1468 ft 132 kts 19°
2026-04-19 09:54 -37.81522 144.98261 1462 ft 131 kts 350°
2026-04-19 09:54 -37.80640 144.98027 1465 ft 132 kts 349°
2026-04-19 09:55 -37.79735 144.97799 1466 ft 133 kts 349°
2026-04-19 09:55 -37.78823 144.97569 1467 ft 134 kts 349°
2026-04-19 09:55 -37.77899 144.97347 1467 ft 133 kts 352°
2026-04-19 09:55 -37.76985 144.97188 1399 ft 137 kts 353°
2026-04-19 09:56 -37.76015 144.97019 1266 ft 140 kts 353°
2026-04-19 09:56 -37.75080 144.96807 1178 ft 134 kts 345°
2026-04-19 09:56 -37.74294 144.96311 1141 ft 117 kts 328°
2026-04-19 09:56 -37.73695 144.95733 1058 ft 99 kts 322°
2026-04-19 09:57 -37.73299 144.95034 864 ft 100 kts 297°
2026-04-19 09:57 -37.73098 144.94221 709 ft 96 kts 284°
2026-04-19 09:57 -37.73029 144.93393 558 ft 94 kts 274°
2026-04-19 09:57 -37.73050 144.92592 453 ft 88 kts 269°
2026-04-19 09:58 -37.73067 144.91831 348 ft 86 kts 270°
2026-04-19 09:58 -37.73093 144.91071 254 ft 83 kts 270°
2026-04-19 09:58 -37.73109 144.90461 252 ft 47 kts 266°
2026-04-19 09:58 -37.73114 144.90190 254 ft 27 kts 270°
2026-04-19 09:59 -37.73086 144.90011 254 ft 16 kts 341°
2026-04-19 09:59 -37.73028 144.90004 255 ft 0 kts
2026-04-19 10:01 -37.72959 144.89998 263 ft 22 kts 359°
2026-04-19 10:01 -37.72749 144.89990 263 ft 32 kts 357°
2026-04-19 10:02 -37.72582 144.89987 266 ft 17 kts 355°
2026-04-19 10:02 -37.72497 144.89969 266 ft 10 kts 352°
2026-04-19 10:02 -37.72416 144.89952 266 ft 16 kts 343°
2026-04-19 10:02 -37.72280 144.89932 267 ft 21 kts
2026-04-19 10:03 -37.72185 144.89885 267 ft 15 kts 281°
2026-04-19 10:03 -37.72122 144.89859 266 ft 2 kts 53°
2026-04-19 10:03 -37.72112 144.89878 267 ft 0 kts 66°